Klamath Falls, OR

10:55 PM PST on February 26, 2017 (GMT -0800)
Klamath Falls International

Weather History for KLMT - February, 2014

Change the Weather History Date:

Friday, February 28, 2014

  Actual Average Record
Temperature  
Mean Temperature 41 °F 37 °F  
Max Temperature 50 °F 48 °F 64 °F (1986)
Min Temperature 32 °F 26 °F 0 °F (1993)
Degree Days  
Heating Degree Days 24 28  
Month to date heating degree days 765 860  
Since 1 July heating degree days 4783 4841  
Cooling Degree Days 0 0  
Month to date cooling degree days 0 0  
Year to date cooling degree days 0 0  
Moisture  
Dew Point 34 °F    
Average Humidity 80    
Maximum Humidity 96    
Minimum Humidity 60    
Precipitation  
Precipitation T in 0.06 in 0.48 in (1940)
Month to date precipitation 2.34 1.92  
Year to date precipitation 2.65 3.77  
Sea Level Pressure  
Sea Level Pressure 29.49 in    
Wind  
Wind Speed 6 mph (ESE)    
Max Wind Speed 22 mph    
Max Gust Speed 26 mph    
Visibility 10 miles    
Events Rain    
T = Trace of Precipitation, MM = Missing Value Source: NWS Daily Summary

Daily Weather History Graph

Daily Weather History Graph

Search for Another Location

Airport or City:

Trip Planner

Search our weather history database for the weather conditions in past years. The results will help you decide how hot, cold, wet, or windy it might be!

Date:

Astronomy

Feb. 28, 2014 Rise Set
Actual Time 6:43 AM PST 5:55 PM PST
Civil Twilight 6:15 AM PST 6:24 PM PST
Nautical Twilight 5:43 AM PST 6:56 PM PST
Astronomical Twilight 5:10 AM PST 7:28 PM PST
Moon 6:01 AM PST (2/28) 5:39 PM PST (2/28)
Length of Visible Light 12h 08m
Length of Day
11h 12m
Waning Crescent, 0% of the Moon is Illuminated
Feb 28
Waning Crescent
Mar 1
New
Mar 8
First Quarter
Mar 16
Full
Mar 23
Last Quarter

Hourly Weather History & Observations

Time (PST) Temp. Windchill Dew Point Humidity Pressure Visibility Wind Dir Wind Speed Gust Speed Precip Events Conditions
12:53 AM 37.9 °F 29.6 °F 32.0 °F 79% 29.66 in 10.0 mi SSE 13.8 mph 18.4 mph N/A   Clear
1:53 AM 37.9 °F 33.5 °F 30.9 °F 76% 29.65 in 10.0 mi SSE 5.8 mph - N/A   Clear
2:53 AM 34.0 °F 27.2 °F 30.9 °F 89% 29.65 in 10.0 mi SE 8.1 mph - N/A   Clear
3:53 AM 34.0 °F 29.8 °F 30.9 °F 89% 29.61 in 10.0 mi East 4.6 mph - N/A   Clear
4:53 AM 36.0 °F 30.3 °F 30.9 °F 82% 29.57 in 10.0 mi ENE 6.9 mph - N/A   Clear
5:53 AM 35.1 °F 31.0 °F 30.9 °F 85% 29.57 in 10.0 mi East 4.6 mph - N/A   Clear
6:53 AM 35.1 °F - 30.9 °F 85% 29.57 in 10.0 mi Calm Calm - N/A   Overcast
7:53 AM 35.1 °F - 32.0 °F 89% 29.55 in 10.0 mi Calm Calm - N/A   Overcast
8:53 AM 37.9 °F 35.5 °F 30.0 °F 73% 29.54 in 10.0 mi SW 3.5 mph - N/A   Overcast
9:53 AM 43.0 °F 38.2 °F 33.1 °F 68% 29.50 in 10.0 mi East 8.1 mph - N/A   Overcast
10:53 AM 43.0 °F 36.4 °F 34.0 °F 71% 29.52 in 10.0 mi SE 12.7 mph - 0.00 in   Overcast
11:53 AM 46.0 °F 39.9 °F 34.0 °F 63% 29.46 in 10.0 mi East 13.8 mph 17.3 mph N/A   Overcast
12:53 PM 46.9 °F - 35.1 °F 63% 29.43 in 10.0 mi SE 11.5 mph - N/A   Overcast
1:53 PM 48.0 °F - 36.0 °F 63% 29.41 in 10.0 mi SSE 11.5 mph - N/A   Overcast
2:53 PM 46.0 °F 40.6 °F 37.9 °F 73% 29.41 in 10.0 mi NNW 11.5 mph - N/A   Overcast
3:53 PM 46.9 °F - 37.0 °F 68% 29.39 in 10.0 mi NNW 10.4 mph - N/A   Overcast
4:53 PM 46.0 °F 44.8 °F 37.0 °F 71% 29.37 in 10.0 mi Variable 3.5 mph - 0.00 in   Scattered Clouds
5:53 PM 41.0 °F 35.2 °F 35.1 °F 79% 29.39 in 10.0 mi NNW 9.2 mph - N/A   Partly Cloudy
6:53 PM 39.9 °F 37.8 °F 36.0 °F 86% 29.41 in 10.0 mi NNW 3.5 mph - N/A   Overcast
7:53 PM 39.9 °F - 36.0 °F 86% 29.42 in 10.0 mi Calm Calm - N/A   Mostly Cloudy
8:53 PM 35.1 °F - 32.0 °F 89% 29.42 in 10.0 mi Calm Calm - N/A   Scattered Clouds
9:53 PM 37.0 °F - 34.0 °F 89% 29.42 in 10.0 mi Calm Calm - N/A   Mostly Cloudy
10:53 PM 34.0 °F 29.8 °F 32.0 °F 92% 29.44 in 10.0 mi South 4.6 mph - N/A   Mostly Cloudy
11:20 PM 36.0 °F 33.3 °F 34.0 °F 93% 29.45 in 10.0 mi South 3.5 mph - N/A   Overcast
11:53 PM 37.9 °F - 35.1 °F 89% 29.44 in 7.0 mi Calm Calm - 0.00 in Rain Light Rain